Tracking 22124 objects as of 25-Jan-2021
HD Live streaming from Space Station
objects crossing your sky now

METEOR 1-27

Track METEOR 1-27 now!
10-day predictions
METEOR 1-27 is classified as:


NORAD ID: 9903
Int'l Code: 1977-024A
Perigee: 845.1 km
Apogee: 899.5 km
Inclination: 81.3 °
Period: 102.3 minutes
Semi major axis: 7243 km
RCS: 4.395 m2 (large)
Launch date: April 5, 1977
Source: Commonwealth of Independent States (former USSR) (CIS)
Launch site: PLESETSK MISSILE AND SPACE COMPLEX (PKMTR)
aabbcc
Your satellite tracking list
Your tracking list is empty




NASA's NSSDC Master Catalog

Two Line Element Set (TLE):
1 09903U 77024A   21025.51944881 -.00000002  00000-0 -87813-5 0  9997
2 09903  81.2548 244.2475 0037545 163.7779 196.4603 14.08299301250433
Source of the keplerian elements: AFSPC